DateTime,Index
1990072318,0.0
1990072400,0.0
1990072406,0.0
1990072412,0.0
1990072418,0.0
1990072500,0.0
1990072506,0.0
1990072512,0.0
1990072518,0.0
1990072600,1225.0
1990072606,1600.0
1990072612,2500.0
1990072618,3025.0
1990072700,3600.0
1990072706,4225.0
1990072712,5625.0
1990072718,8100.0
1990072800,10000.0
1990072806,13225.0
1990072812,13225.0
1990072818,13225.0
1990072900,13225.0
1990072906,13225.0
1990072912,13225.0
1990072918,11025.0
1990073000,9025.0
1990073006,8100.0
1990073012,8100.0
1990073018,7225.0
1990073100,6400.0
1990073106,6400.0
1990073112,5625.0
1990073118,4900.0
1990080100,4225.0
1990080106,4225.0
1990080112,3025.0
1990080118,2500.0
1990080200,2500.0
1990080206,2025.0
1990080212,1225.0
1990080218,1225.0
1990080300,1600.0
1990080306,2025.0
1990080312,2025.0
